Regional Weather Roundup
Issued by NWS State College, PA

Home | Current Version | Previous Version | Text Only | Print | Product List | Glossary Off
Versions: 1 2 3 4 5 6 7 8 9 10 11 12 13 14 15 16 17 18 19 20 21 22 23 24 25 26 27 28 29 30 31 32 33 34 35 36 37 38 39 40 41 42 43 44 45 46 47 48 49 50

000
ASUS41 KCTP 270410
RWRCTP

REGIONAL WEATHER ROUNDUP
NATIONAL WEATHER SERVICE STATE COLLEGE PA
1100 PM EST WED NOV 26 2014

Note: "fair" indicates few or no clouds below 12,000 feet with no
significant weather and/or obstructions to visibility.

* = STATION THAT DOES NOT REPORT PRECIPITATION /E.G. RAIN...SNOW...ETC/
    THUNDER OR FOG.

PAZ002>004-007>009-013>016-020>023-029>032-270500-
WESTERN PENNSYLVANIA

CITY           SKY/WX    TMP DP  RH WIND       PRES   REMARKS
ERIE           CLOUDY    35  27  72 NE6       30.02S
MEADVILLE      CLOUDY    32  29  88 CALM      29.97F
FRANKLIN*      CLOUDY    30  27  86 CALM      29.99S
NEW CASTLE       N/A     32  31  96 CALM      30.02S
BEAVER COUNTY  NOT AVBL
BUTLER*        CLOUDY    32  30  93 CALM      30.00F
PITTSBURGH INT CLOUDY    32  31  96 W3        29.99F FOG
PITTSBURGH     CLOUDY    32  29  88 W3        29.98F FOG
INDIANA*       CLOUDY    32  32 100 CALM      30.01S FOG
LATROBE        CLOUDY    32  32 100 CALM      30.01F FOG
WASHINGTON CO* CLOUDY    34  30  86 CALM      30.01S
$$

PAZ004>006-010>012-017>019-024>028-033>037-041-042-045-046-049>053-270500-
CENTRAL PENNSYLVANIA

CITY           SKY/WX    TMP DP  RH WIND       PRES   REMARKS
BRADFORD       CLOUDY    28  24  85 N3        29.94S
DUBOIS         CLOUDY    30  28  92 CALM      29.94F
CLEARFIELD     CLOUDY    30  28  92 CALM      29.96F
JOHNSTOWN      FOG       29  28  96 NW8       29.92S VSB 1/2
ALTOONA        CLOUDY    31  29  92 CALM      29.96F
STATE COLLEGE  CLOUDY    32  28  86 CALM      29.96S
WILLIAMSPORT   CLOUDY    32  29  88 W8        29.97R
SELINSGROVE    CLOUDY    32  29  88 NW5       29.97R
FT INDIANTOWN  CLOUDY    35  29  79 VRB3      29.94R
CAPITAL CITY   CLOUDY    35  29  78 NW9       29.97R
HARRISBURG     CLOUDY    34  30  85 NW12      29.96R
YORK           CLOUDY    34  30  85 NW8       29.96R
$$

PAZ038>040-043-044-047-048-054-055-060>062-067>071-270500-
EASTERN PENNSYLVANIA

CITY           SKY/WX    TMP DP  RH WIND       PRES   REMARKS
SCRANTON       FLURRIES  32  27  81 W10       29.90S
MOUNT POCONO   FLURRIES  29  25  85 NW12G21   29.82R
ALLENTOWN      CLOUDY    36  28  73 N5        29.88R
QUAKERTOWN*    CLOUDY    34  32  93 NW6       29.88R
READING        CLOUDY    36  29  75 NW10      29.92R
LANCASTER      CLOUDY    34  30  85 W9        29.94R
COATESVILLE    PTCLDY    32  32 100 NW14      29.91R
POTTSTOWN      CLOUDY    34  30  85 NW6       29.90R
BLUE BELL      MOCLDY    36  32  87 CALM      29.87S
DOYLESTOWN     CLOUDY    33  31  92 NW6       29.87R
WILLOW GROVE   NOT AVBL
NORTH PHILA    CLOUDY    37  31  78 NW8       29.89R
PHILADELPHIA   CLOUDY    37  31  78 NW12      29.90R
$$



USA.gov is the U.S. government's official web portal to all federal, state and local government web resources and services.